,,,PA_Meas_PMT16A,,PR_Meas_QMR101_102,,RH_Meas_QMH101,,SR_Meas_QMS101,,TA_Meas_QMH101,,GenWind,,GenWind,
date,time,status,PA,status,PR,status,RH,status,SR,status,TA,status,DirAvg,status,SpdAvg,
2012-02-16, 00:00:04,VALID,1002.86,VALID,0,VALID,90.4709,VALID,0.0815089,VALID,25.1034,VALID,10,VALID,0,
2012-02-16, 00:01:04,VALID,1002.83,VALID,0,VALID,90.5319,VALID,0.0815089,VALID,25.0839,VALID,10,VALID,0.167187,
2012-02-16, 00:02:04,VALID,1002.82,VALID,0,VALID,90.5624,VALID,0,VALID,25.0644,VALID,10,VALID,0.348437,
2012-02-16, 00:03:04,VALID,1002.81,VALID,0,VALID,90.5396,VALID,0,VALID,25.0644,VALID,10,VALID,0,
2012-02-16, 00:04:04,VALID,1002.85,VALID,0,VALID,90.6082,VALID,0.0815089,VALID,25.045,VALID,10,VALID,0.395312,
2012-02-16, 00:05:04,VALID,1002.85,VALID,0,VALID,90.6616,VALID,0,VALID,25.0255,VALID,10,VALID,0.101172,
2012-02-16, 00:06:04,VALID,1002.82,VALID,0,VALID,90.7226,VALID,0,VALID,24.9866,VALID,10,VALID,0,
2012-02-16, 00:07:04,VALID,1002.81,VALID,0,VALID,90.9515,VALID,0,VALID,25.0274,VALID,10,VALID,0.391406,
2012-02-16, 00:08:04,VALID,1002.82,VALID,0,VALID,91.0888,VALID,0,VALID,25.0255,VALID,10,VALID,0.380469,
2012-02-16, 00:09:04,VALID,1002.81,VALID,0,VALID,90.982,VALID,0,VALID,25.0663,VALID,10,VALID,0.574609,
2012-02-16, 00:10:04,VALID,1002.81,VALID,0,VALID,90.9897,VALID,0,VALID,25.0858,VALID,10,VALID,0.332812,
2012-02-16, 00:11:04,VALID,1002.79,VALID,0,VALID,90.7913,VALID,0.0815089,VALID,25.0236,VALID,10,VALID,0.505469,
2012-02-16, 00:12:04,VALID,1002.8,VALID,0,VALID,90.8676,VALID,0,VALID,25.045,VALID,10,VALID,0.408594,
2012-02-16, 00:13:04,VALID,1002.82,VALID,0,VALID,90.9439,VALID,0,VALID,25.0255,VALID,10,VALID,0.187109,
2012-02-16, 00:14:04,VALID,1002.8,VALID,0,VALID,90.982,VALID,0.0815089,VALID,25.0644,VALID,10,VALID,0.380859,
2012-02-16, 00:15:04,VALID,1002.81,VALID,0,VALID,90.9515,VALID,0,VALID,25.045,VALID,10,VALID,0.285156,
2012-02-16, 00:16:04,VALID,1002.83,VALID,0,VALID,90.982,VALID,0.0815089,VALID,25.0644,VALID,12,VALID,0.498047,
2012-02-16, 00:17:04,VALID,1002.8,VALID,0,VALID,90.8981,VALID,0,VALID,25.0644,VALID,12,VALID,0.382031,
2012-02-16, 00:18:04,VALID,1002.77,VALID,0,VALID,90.8829,VALID,0,VALID,25.1053,VALID,12,VALID,0.619922,
2012-02-16, 00:19:04,VALID,1002.72,VALID,0,VALID,90.8905,VALID,0,VALID,25.1034,VALID,12,VALID,0.653906,
2012-02-16, 00:20:04,VALID,1002.72,VALID,0,VALID,90.8752,VALID,0,VALID,25.1229,VALID,13,VALID,0.659766,
2012-02-16, 00:21:04,VALID,1002.67,VALID,0,VALID,90.86,VALID,0,VALID,25.1813,VALID,14,VALID,0.825781,
2012-02-16, 00:22:04,VALID,1002.63,VALID,0,VALID,90.6082,VALID,0,VALID,25.2007,VALID,14,VALID,0.669531,
2012-02-16, 00:23:04,VALID,1002.65,VALID,0,VALID,90.4709,VALID,0,VALID,25.2397,VALID,14,VALID,0.551562,
2012-02-16, 00:24:04,VALID,1002.64,VALID,0,VALID,90.0742,VALID,0.0815089,VALID,25.2786,VALID,14,VALID,0.601172,
2012-02-16, 00:25:04,VALID,1002.64,VALID,0,VALID,90.0894,VALID,0,VALID,25.2786,VALID,14,VALID,0.644141,
2012-02-16, 00:26:04,VALID,1002.63,VALID,0,VALID,89.975,VALID,0,VALID,25.3195,VALID,14,VALID,0.325,
2012-02-16, 00:27:04,VALID,1002.64,VALID,0,VALID,89.8148,VALID,0,VALID,25.2786,VALID,16,VALID,0.644141,
2012-02-16, 00:28:04,VALID,1002.63,VALID,0,VALID,89.9064,VALID,0,VALID,25.2592,VALID,16,VALID,0.448828,
2012-02-16, 00:29:04,VALID,1002.61,VALID,0,VALID,90.0284,VALID,0,VALID,25.2611,VALID,16,VALID,0.461719,
2012-02-16, 00:30:04,VALID,1002.6,VALID,0,VALID,90.0513,VALID,0,VALID,25.2221,VALID,16,VALID,0.388281,
2012-02-16, 00:31:04,VALID,1002.61,VALID,0,VALID,90.1429,VALID,0,VALID,25.1618,VALID,16,VALID,0.486328,
2012-02-16, 00:32:04,VALID,1002.59,VALID,0,VALID,90.3183,VALID,0,VALID,25.1423,VALID,16,VALID,0.601953,
2012-02-16, 00:33:04,VALID,1002.6,VALID,0,VALID,90.3717,VALID,0,VALID,25.1229,VALID,16,VALID,0.818359,
2012-02-16, 00:34:04,VALID,1002.57,VALID,0,VALID,90.593,VALID,0,VALID,25.1034,VALID,3,VALID,0.428125,
2012-02-16, 00:35:04,VALID,1002.54,VALID,0,VALID,90.5548,VALID,0,VALID,25.0625,VALID,3,VALID,0.458594,
2012-02-16, 00:36:04,VALID,1002.52,VALID,0,VALID,90.5243,VALID,0,VALID,25.045,VALID,3,VALID,0.444141,
2012-02-16, 00:37:04,VALID,1002.5,VALID,0,VALID,90.5777,VALID,0.0815089,VALID,25.0041,VALID,2,VALID,0.228125,
2012-02-16, 00:38:04,VALID,1002.49,VALID,0,VALID,90.654,VALID,0,VALID,24.9652,VALID,2,VALID,0.149219,
2012-02-16, 00:39:04,VALID,1002.45,VALID,0,VALID,90.7074,VALID,0,VALID,24.9671,VALID,2,VALID,0.662891,
2012-02-16, 00:40:04,VALID,1002.47,VALID,0,VALID,90.715,VALID,0,VALID,24.93,VALID,1,VALID,0.550781,
2012-02-16, 00:41:04,VALID,1002.44,VALID,0,VALID,90.776,VALID,0,VALID,24.8697,VALID,349,VALID,0.574219,
2012-02-16, 00:42:04,VALID,1002.43,VALID,0,VALID,90.921,VALID,0,VALID,24.8289,VALID,348,VALID,0.530859,
2012-02-16, 00:43:04,VALID,1002.42,VALID,0,VALID,91.0507,VALID,0.0815089,VALID,24.8113,VALID,349,VALID,0.748828,
2012-02-16, 00:44:04,VALID,1002.39,VALID,0,VALID,91.0583,VALID,0.0815089,VALID,24.7705,VALID,342,VALID,0.690625,
2012-02-16, 00:45:04,VALID,1002.4,VALID,0,VALID,91.1728,VALID,0,VALID,24.7548,VALID,349,VALID,0.597266,
2012-02-16, 00:46:04,VALID,1002.37,VALID,0,VALID,91.2643,VALID,0,VALID,24.714,VALID,348,VALID,0.744531,
2012-02-16, 00:47:04,VALID,1002.37,VALID,0,VALID,91.4016,VALID,0.0815089,VALID,24.6945,VALID,347,VALID,0.524219,
2012-02-16, 00:48:04,VALID,1002.33,VALID,0,VALID,91.5542,VALID,0.0815089,VALID,24.6556,VALID,338,VALID,0.582812,
2012-02-16, 00:49:04,VALID,1002.34,VALID,0,VALID,91.7831,VALID,0.0815089,VALID,24.6361,VALID,334,VALID,0.399609,
2012-02-16, 00:50:04,VALID,1002.29,VALID,0,VALID,91.8746,VALID,0,VALID,24.6342,VALID,346,VALID,0.530469,
2012-02-16, 00:51:04,VALID,1002.3,VALID,0,VALID,91.9128,VALID,0,VALID,24.6556,VALID,346,VALID,0.597656,
2012-02-16, 00:52:04,VALID,1002.27,VALID,0,VALID,91.9051,VALID,0,VALID,24.6537,VALID,346,VALID,0.316797,
2012-02-16, 00:53:04,VALID,1002.3,VALID,0,VALID,91.989,VALID,0.0815089,VALID,24.6556,VALID,348,VALID,0.477344,
2012-02-16, 00:54:04,VALID,1002.31,VALID,0,VALID,92.0043,VALID,0.0815089,VALID,24.675,VALID,348,VALID,0.110547,
2012-02-16, 00:55:04,VALID,1002.28,VALID,0,VALID,92.0272,VALID,0,VALID,24.675,VALID,348,VALID,0.347266,
2012-02-16, 00:56:04,VALID,1002.27,VALID,0,VALID,91.9738,VALID,0.0815089,VALID,24.6537,VALID,348,VALID,0.172656,
2012-02-16, 00:57:04,VALID,1002.28,VALID,0,VALID,91.989,VALID,0,VALID,24.6556,VALID,348,VALID,0.346875,
2012-02-16, 00:58:04,VALID,1002.27,VALID,0,VALID,91.9814,VALID,0,VALID,24.6556,VALID,348,VALID,0.249219,
2012-02-16, 00:59:04,VALID,1002.27,VALID,0,VALID,91.9814,VALID,0,VALID,24.6361,VALID,348,VALID,0.546094,
2012-02-16, 01:00:04,VALID,1002.26,VALID,0,VALID,92.0577,VALID,0,VALID,24.5758,VALID,348,VALID,0.485547,
2012-02-16, 01:01:04,VALID,1002.23,VALID,0,VALID,92.3171,VALID,0,VALID,24.6185,VALID,349,VALID,0.634766,
2012-02-16, 01:02:04,VALID,1002.25,VALID,0,VALID,92.3934,VALID,0,VALID,24.638,VALID,349,VALID,0.733594,
2012-02-16, 01:03:04,VALID,1002.24,VALID,0,VALID,92.3934,VALID,0,VALID,24.6185,VALID,349,VALID,0.565234,
2012-02-16, 01:04:04,VALID,1002.24,VALID,0,VALID,92.5841,VALID,0,VALID,24.6166,VALID,349,VALID,0.746875,
2012-02-16, 01:05:04,VALID,1002.27,VALID,0,VALID,92.5688,VALID,0,VALID,24.6361,VALID,349,VALID,0.616797,
2012-02-16, 01:06:04,VALID,1002.25,VALID,0,VALID,92.5536,VALID,0,VALID,24.6342,VALID,349,VALID,0.661328,
2012-02-16, 01:07:04,VALID,1002.23,VALID,0,VALID,92.5154,VALID,0,VALID,24.6556,VALID,349,VALID,0.472266,
2012-02-16, 01:08:04,VALID,1002.27,VALID,0,VALID,92.5078,VALID,0,VALID,24.6556,VALID,349,VALID,0.45625,
2012-02-16, 01:09:04,VALID,1002.21,VALID,0,VALID,92.4849,VALID,0,VALID,24.6342,VALID,349,VALID,0.6375,
2012-02-16, 01:10:04,VALID,1002.24,VALID,0,VALID,92.4925,VALID,0.0815089,VALID,24.6556,VALID,350,VALID,0.485938,
2012-02-16, 01:11:04,VALID,1002.21,VALID,0,VALID,92.4773,VALID,0.0815089,VALID,24.6361,VALID,350,VALID,0.582031,
2012-02-16, 01:12:04,VALID,1002.17,VALID,0,VALID,92.4849,VALID,0,VALID,24.6166,VALID,350,VALID,0.535937,
2012-02-16, 01:13:04,VALID,1002.15,VALID,0,VALID,92.4925,VALID,0.0815089,VALID,24.5972,VALID,350,VALID,0.522656,
2012-02-16, 01:14:04,VALID,1002.14,VALID,0,VALID,92.4925,VALID,0,VALID,24.5369,VALID,350,VALID,0.569141,
2012-02-16, 01:15:04,VALID,1002.09,VALID,0,VALID,92.5612,VALID,0.0815089,VALID,24.5582,VALID,350,VALID,0.61875,
2012-02-16, 01:16:04,VALID,1002.11,VALID,0,VALID,92.6528,VALID,0.0815089,VALID,24.5601,VALID,350,VALID,0.595703,
2012-02-16, 01:17:04,VALID,1002.1,VALID,0,VALID,92.8282,VALID,0.0815089,VALID,24.5388,VALID,341,VALID,0.661328,
2012-02-16, 01:18:04,VALID,1002.09,VALID,0,VALID,92.8816,VALID,0,VALID,24.5582,VALID,341,VALID,0.539844,
2012-02-16, 01:19:04,VALID,1002.03,VALID,0,VALID,92.7748,VALID,0,VALID,24.5388,VALID,347,VALID,0.557031,
2012-02-16, 01:20:04,VALID,1002.03,VALID,0,VALID,92.7748,VALID,0.0815089,VALID,24.5193,VALID,348,VALID,0.389453,
2012-02-16, 01:21:04,VALID,1002,VALID,0,VALID,92.8587,VALID,0,VALID,24.5406,VALID,348,VALID,0.800391,
2012-02-16, 01:22:04,VALID,1001.97,VALID,0,VALID,92.8587,VALID,0.0815089,VALID,24.4998,VALID,347,VALID,0.582812,
2012-02-16, 01:23:04,VALID,1001.97,VALID,0,VALID,92.8358,VALID,0.0815089,VALID,24.4804,VALID,347,VALID,0.634375,
2012-02-16, 01:24:04,VALID,1001.97,VALID,0,VALID,92.8206,VALID,0,VALID,24.4396,VALID,347,VALID,0.590625,
2012-02-16, 01:25:04,VALID,1001.95,VALID,0,VALID,92.8435,VALID,0,VALID,24.4414,VALID,347,VALID,0.519141,
2012-02-16, 01:26:04,VALID,1001.99,VALID,0,VALID,93.1181,VALID,0,VALID,24.4396,VALID,347,VALID,0.473437,
2012-02-16, 01:27:04,VALID,1001.97,VALID,0,VALID,93.1868,VALID,0.0815089,VALID,24.4804,VALID,346,VALID,0.408594,
2012-02-16, 01:28:04,VALID,1001.95,VALID,0,VALID,93.1791,VALID,0,VALID,24.4998,VALID,346,VALID,0.560938,
2012-02-16, 01:29:04,VALID,1001.94,VALID,0,VALID,93.1791,VALID,0.0815089,VALID,24.4998,VALID,346,VALID,0.522656,
2012-02-16, 01:30:04,VALID,1001.92,VALID,0,VALID,93.1334,VALID,0,VALID,24.5017,VALID,346,VALID,0.683984,
2012-02-16, 01:31:04,VALID,1001.91,VALID,0,VALID,93.1486,VALID,0,VALID,24.4785,VALID,346,VALID,0.596484,
2012-02-16, 01:32:04,VALID,1001.91,VALID,0,VALID,93.1563,VALID,0,VALID,24.4998,VALID,346,VALID,0.466797,
2012-02-16, 01:33:04,VALID,1001.91,VALID,0,VALID,93.202,VALID,0,VALID,24.5193,VALID,346,VALID,0.269531,
2012-02-16, 01:34:04,VALID,1001.92,VALID,0,VALID,93.2173,VALID,0,VALID,24.5582,VALID,346,VALID,0,
2012-02-16, 01:35:04,VALID,1001.91,VALID,0,VALID,93.347,VALID,0.0815089,VALID,24.5972,VALID,341,VALID,0.215234,
2012-02-16, 01:36:04,VALID,1001.92,VALID,0,VALID,93.3775,VALID,0,VALID,24.6166,VALID,342,VALID,0.394922,
2012-02-16, 01:37:04,VALID,1001.91,VALID,0,VALID,93.2783,VALID,0,VALID,24.6732,VALID,342,VALID,0.524219,
2012-02-16, 01:38:04,VALID,1001.88,VALID,0,VALID,93.1486,VALID,0,VALID,24.7335,VALID,338,VALID,0.517969,
2012-02-16, 01:39:04,VALID,1001.87,VALID,0,VALID,92.8892,VALID,0,VALID,24.7743,VALID,338,VALID,0.597266,
2012-02-16, 01:40:04,VALID,1001.86,VALID,0,VALID,92.6909,VALID,0,VALID,24.7937,VALID,341,VALID,0.382422,
2012-02-16, 01:41:04,VALID,1001.86,VALID,0,VALID,92.4697,VALID,0,VALID,24.7937,VALID,340,VALID,0.548437,
2012-02-16, 01:42:04,VALID,1001.84,VALID,0,VALID,92.3247,VALID,0,VALID,24.8327,VALID,340,VALID,0.494531,
2012-02-16, 01:43:04,VALID,1001.82,VALID,0,VALID,92.2332,VALID,0,VALID,24.8308,VALID,339,VALID,0.371875,
2012-02-16, 01:44:04,VALID,1001.84,VALID,0,VALID,92.1416,VALID,0,VALID,24.8716,VALID,331,VALID,0.378906,
2012-02-16, 01:45:04,VALID,1001.81,VALID,0,VALID,92.0196,VALID,0,VALID,24.8716,VALID,333,VALID,0.540625,
2012-02-16, 01:46:04,VALID,1001.8,VALID,0,VALID,91.928,VALID,0,VALID,24.9106,VALID,346,VALID,0.957812,
2012-02-16, 01:47:04,VALID,1001.8,VALID,0,VALID,91.7983,VALID,0,VALID,24.93,VALID,346,VALID,0.196484,
2012-02-16, 01:48:04,VALID,1001.81,VALID,0,VALID,91.6076,VALID,0,VALID,24.9476,VALID,346,VALID,0.547266,
2012-02-16, 01:49:04,VALID,1001.84,VALID,0,VALID,91.4703,VALID,0,VALID,24.969,VALID,346,VALID,0.5,
2012-02-16, 01:50:04,VALID,1001.84,VALID,0,VALID,91.2796,VALID,0,VALID,24.9885,VALID,339,VALID,0.415234,
2012-02-16, 01:51:04,VALID,1001.86,VALID,0,VALID,91.0812,VALID,0,VALID,25.0079,VALID,356,VALID,0.185156,
2012-02-16, 01:52:04,VALID,1001.85,VALID,0,VALID,90.8676,VALID,0,VALID,25.0274,VALID,332,VALID,0.729297,
2012-02-16, 01:53:04,VALID,1001.88,VALID,0,VALID,90.5319,VALID,0,VALID,25.0644,VALID,350,VALID,1.15313,
2012-02-16, 01:54:04,VALID,1001.88,VALID,0,VALID,90.3183,VALID,0,VALID,25.0839,VALID,357,VALID,0.479688,
2012-02-16, 01:55:04,VALID,1001.88,VALID,0,VALID,90.0513,VALID,0,VALID,25.1248,VALID,355,VALID,0.707031,
2012-02-16, 01:56:04,VALID,1001.88,VALID,0,VALID,89.8301,VALID,0,VALID,25.1637,VALID,345,VALID,0.687109,
2012-02-16, 01:57:04,VALID,1001.89,VALID,0,VALID,89.502,VALID,0,VALID,25.1832,VALID,335,VALID,0.869141,
2012-02-16, 01:58:04,VALID,1001.86,VALID,0,VALID,89.0672,VALID,0,VALID,25.2221,VALID,344,VALID,1.39883,
2012-02-16, 01:59:04,VALID,1001.85,VALID,0,VALID,88.8154,VALID,0,VALID,25.2416,VALID,329,VALID,1.23203,
2012-02-16, 02:00:04,VALID,1001.86,VALID,0,VALID,88.7697,VALID,0,VALID,25.2806,VALID,347,VALID,0.688672,
2012-02-16, 02:01:04,VALID,1001.83,VALID,0,VALID,88.6323,VALID,0,VALID,25.2806,VALID,345,VALID,0.997266,
2012-02-16, 02:02:04,VALID,1001.82,VALID,0,VALID,88.5103,VALID,0,VALID,25.2611,VALID,349,VALID,1.42188,
2012-02-16, 02:03:04,VALID,1001.83,VALID,0,VALID,88.3653,VALID,0,VALID,25.2786,VALID,348,VALID,1.23594,
2012-02-16, 02:04:04,VALID,1001.84,VALID,0,VALID,88.3882,VALID,0,VALID,25.3,VALID,351,VALID,0.976172,
2012-02-16, 02:05:04,VALID,1001.82,VALID,0,VALID,88.1899,VALID,0,VALID,25.3,VALID,344,VALID,1.18867,
2012-02-16, 02:06:04,VALID,1001.79,VALID,0,VALID,88.1899,VALID,0,VALID,25.3195,VALID,347,VALID,0.377734,
2012-02-16, 02:07:04,VALID,1001.78,VALID,0,VALID,88.1365,VALID,0,VALID,25.2981,VALID,355,VALID,0.423438,
2012-02-16, 02:08:04,VALID,1001.76,VALID,0,VALID,88.022,VALID,0,VALID,25.2981,VALID,339,VALID,0.983203,
2012-02-16, 02:09:04,VALID,1001.79,VALID,0,VALID,88.0296,VALID,0,VALID,25.3176,VALID,1,VALID,0.520703,
2012-02-16, 02:10:04,VALID,1001.77,VALID,0,VALID,87.9534,VALID,0,VALID,25.337,VALID,355,VALID,0.483203,
2012-02-16, 02:11:04,VALID,1001.77,VALID,0,VALID,87.961,VALID,0,VALID,25.337,VALID,335,VALID,0.321875,
2012-02-16, 02:12:04,VALID,1001.76,VALID,0,VALID,87.9076,VALID,0,VALID,25.3176,VALID,346,VALID,0.460547,
2012-02-16, 02:13:04,VALID,1001.71,VALID,0,VALID,87.7092,VALID,0,VALID,25.3176,VALID,336,VALID,0.98125,
2012-02-16, 02:14:04,VALID,1001.77,VALID,0,VALID,87.7016,VALID,0,VALID,25.3176,VALID,349,VALID,0.826953,
2012-02-16, 02:15:04,VALID,1001.69,VALID,0,VALID,87.5414,VALID,0,VALID,25.337,VALID,4,VALID,1.40313,
2012-02-16, 02:16:04,VALID,1001.7,VALID,0,VALID,87.3659,VALID,0,VALID,25.337,VALID,347,VALID,1.09258,
2012-02-16, 02:17:04,VALID,1001.71,VALID,0,VALID,87.4117,VALID,0,VALID,25.337,VALID,341,VALID,0.972266,
2012-02-16, 02:18:04,VALID,1001.7,VALID,0,VALID,87.3278,VALID,0,VALID,25.3565,VALID,352,VALID,0.533984,
2012-02-16, 02:19:04,VALID,1001.7,VALID,0,VALID,87.3888,VALID,0,VALID,25.376,VALID,353,VALID,0.589844,
2012-02-16, 02:20:04,VALID,1001.67,VALID,0,VALID,87.2286,VALID,0,VALID,25.3565,VALID,351,VALID,0.928906,
2012-02-16, 02:21:04,VALID,1001.68,VALID,0,VALID,87.2057,VALID,0,VALID,25.3565,VALID,340,VALID,0.510547,
2012-02-16, 02:22:04,VALID,1001.64,VALID,0,VALID,87.0913,VALID,0,VALID,25.376,VALID,346,VALID,0.969141,
2012-02-16, 02:23:04,VALID,1001.64,VALID,0,VALID,86.8548,VALID,0,VALID,25.3974,VALID,331,VALID,1.06172,
2012-02-16, 02:24:04,VALID,1001.66,VALID,0,VALID,86.8319,VALID,0,VALID,25.4169,VALID,349,VALID,0.558984,
2012-02-16, 02:25:04,VALID,1001.63,VALID,0,VALID,86.8167,VALID,0,VALID,25.4149,VALID,335,VALID,0.810938,
2012-02-16, 02:26:04,VALID,1001.63,VALID,0,VALID,86.7251,VALID,0,VALID,25.3955,VALID,330,VALID,0.945703,
2012-02-16, 02:27:04,VALID,1001.63,VALID,0,VALID,86.6259,VALID,0,VALID,25.3955,VALID,347,VALID,0.838672,
2012-02-16, 02:28:04,VALID,1001.6,VALID,0,VALID,86.6259,VALID,0,VALID,25.4149,VALID,341,VALID,0.823438,
2012-02-16, 02:29:04,VALID,1001.61,VALID,0,VALID,86.5954,VALID,0,VALID,25.4363,VALID,353,VALID,0.987891,
2012-02-16, 02:30:04,VALID,1001.58,VALID,0,VALID,86.6488,VALID,0,VALID,25.3955,VALID,344,VALID,0.572266,
2012-02-16, 02:31:04,VALID,1001.56,VALID,0,VALID,86.5573,VALID,0,VALID,25.3955,VALID,340,VALID,0.771875,
2012-02-16, 02:32:04,VALID,1001.54,VALID,0,VALID,86.5573,VALID,0,VALID,25.3955,VALID,341,VALID,1.18516,
2012-02-16, 02:33:04,VALID,1001.51,VALID,0,VALID,86.5573,VALID,0,VALID,25.3974,VALID,340,VALID,0.837109,
2012-02-16, 02:34:04,VALID,1001.51,VALID,0,VALID,86.6793,VALID,0,VALID,25.376,VALID,352,VALID,1.02617,
2012-02-16, 02:35:04,VALID,1001.49,VALID,0,VALID,86.6183,VALID,0,VALID,25.376,VALID,340,VALID,0.922656,
2012-02-16, 02:36:04,VALID,1001.46,VALID,0,VALID,86.7327,VALID,0,VALID,25.3565,VALID,353,VALID,0.880859,
2012-02-16, 02:37:04,VALID,1001.47,VALID,0,VALID,86.8014,VALID,0,VALID,25.3565,VALID,350,VALID,0.796875,
2012-02-16, 02:38:04,VALID,1001.44,VALID,0,VALID,86.9082,VALID,0,VALID,25.3584,VALID,349,VALID,0.626953,
2012-02-16, 02:39:04,VALID,1001.42,VALID,0,VALID,86.7556,VALID,0,VALID,25.3565,VALID,352,VALID,0.789453,
2012-02-16, 02:40:04,VALID,1001.44,VALID,0,VALID,86.6412,VALID,0,VALID,25.3565,VALID,350,VALID,0.785547,
2012-02-16, 02:41:04,VALID,1001.42,VALID,0,VALID,86.5344,VALID,0,VALID,25.3565,VALID,347,VALID,0.405469,
2012-02-16, 02:42:04,VALID,1001.39,VALID,0,VALID,86.5878,VALID,0,VALID,25.3741,VALID,315,VALID,0.523047,
2012-02-16, 02:43:04,VALID,1001.39,VALID,0,VALID,85.8707,VALID,0,VALID,25.3955,VALID,350,VALID,1.39531,
2012-02-16, 02:44:04,VALID,1001.38,VALID,0,VALID,85.9699,VALID,0,VALID,25.4539,VALID,316,VALID,0.229687,
2012-02-16, 02:45:04,VALID,1001.38,VALID,0,VALID,85.8096,VALID,0,VALID,25.4928,VALID,344,VALID,0.902344,
2012-02-16, 02:46:04,VALID,1001.39,VALID,0,VALID,85.4206,VALID,0,VALID,25.5337,VALID,347,VALID,1.26992,
2012-02-16, 02:47:04,VALID,1001.37,VALID,0,VALID,85.3061,VALID,0,VALID,25.5123,VALID,350,VALID,1.09531,
2012-02-16, 02:48:04,VALID,1001.36,VALID,0,VALID,85.2985,VALID,0,VALID,25.5318,VALID,351,VALID,1.17813,
2012-02-16, 02:49:04,VALID,1001.35,VALID,0,VALID,85.5121,VALID,0,VALID,25.5337,VALID,351,VALID,1.00117,
2012-02-16, 02:50:04,VALID,1001.36,VALID,0,VALID,85.4511,VALID,0,VALID,25.5123,VALID,332,VALID,1.21992,
2012-02-16, 02:51:04,VALID,1001.33,VALID,0,VALID,85.3519,VALID,0,VALID,25.5123,VALID,346,VALID,1.13906,
2012-02-16, 02:52:04,VALID,1001.32,VALID,0,VALID,85.4663,VALID,0,VALID,25.4928,VALID,355,VALID,1.03633,
2012-02-16, 02:53:04,VALID,1001.33,VALID,0,VALID,85.7334,VALID,0,VALID,25.4928,VALID,342,VALID,0.557031,
2012-02-16, 02:54:04,VALID,1001.31,VALID,0,VALID,85.9165,VALID,0,VALID,25.4948,VALID,342,VALID,0.541406,
2012-02-16, 02:55:04,VALID,1001.3,VALID,0,VALID,85.9393,VALID,0,VALID,25.4539,VALID,338,VALID,0.602734,
2012-02-16, 02:56:04,VALID,1001.29,VALID,0,VALID,85.8478,VALID,0,VALID,25.4753,VALID,341,VALID,0.478906,
2012-02-16, 02:57:04,VALID,1001.27,VALID,0,VALID,85.5732,VALID,0,VALID,25.4753,VALID,354,VALID,0.895703,
2012-02-16, 02:58:04,VALID,1001.26,VALID,0,VALID,85.6113,VALID,0,VALID,25.5142,VALID,353,VALID,0.507422,
2012-02-16, 02:59:04,VALID,1001.27,VALID,0,VALID,85.2833,VALID,0,VALID,25.5142,VALID,345,VALID,0.542188,
2012-02-16, 03:00:04,VALID,1001.27,VALID,0,VALID,85.2375,VALID,0,VALID,25.5532,VALID,345,VALID,0.399609,
2012-02-16, 03:01:04,VALID,1001.26,VALID,0,VALID,85.0315,VALID,0,VALID,25.5727,VALID,343,VALID,0.301172,
2012-02-16, 03:02:04,VALID,1001.25,VALID,0,VALID,85.0773,VALID,0,VALID,25.5727,VALID,340,VALID,0.0828125,
2012-02-16, 03:03:04,VALID,1001.29,VALID,0,VALID,84.8789,VALID,0,VALID,25.5921,VALID,337,VALID,0.557422,
2012-02-16, 03:04:04,VALID,1001.32,VALID,0,VALID,84.8179,VALID,0,VALID,25.6097,VALID,339,VALID,0.613672,
2012-02-16, 03:05:04,VALID,1001.33,VALID,0,VALID,84.7035,VALID,0,VALID,25.6311,VALID,340,VALID,0.611719,
2012-02-16, 03:06:04,VALID,1001.33,VALID,0,VALID,84.9094,VALID,0,VALID,25.6525,VALID,341,VALID,0.323438,
2012-02-16, 03:07:04,VALID,1001.34,VALID,0,VALID,84.734,VALID,0,VALID,25.6311,VALID,338,VALID,0.676562,
2012-02-16, 03:08:04,VALID,1001.36,VALID,0,VALID,84.6882,VALID,0,VALID,25.6311,VALID,346,VALID,0.876953,
2012-02-16, 03:09:04,VALID,1001.36,VALID,0,VALID,84.9857,VALID,0,VALID,25.6292,VALID,351,VALID,0.85625,
2012-02-16, 03:10:04,VALID,1001.35,VALID,0,VALID,84.8408,VALID,0,VALID,25.6292,VALID,350,VALID,0.608984,
2012-02-16, 03:11:04,VALID,1001.38,VALID,0,VALID,85.1078,VALID,0,VALID,25.6272,VALID,350,VALID,0.685938,
2012-02-16, 03:12:04,VALID,1001.35,VALID,0,VALID,85.4816,VALID,0.0815089,VALID,25.5883,VALID,350,VALID,0.590625,
2012-02-16, 03:13:04,VALID,1001.36,VALID,0,VALID,85.7334,VALID,0.0815089,VALID,25.5707,VALID,350,VALID,0.650781,
2012-02-16, 03:14:04,VALID,1001.36,VALID,0,VALID,86.2292,VALID,0.0815089,VALID,25.5318,VALID,350,VALID,0.589063,
2012-02-16, 03:15:04,VALID,1001.35,VALID,0,VALID,86.1529,VALID,0,VALID,25.452,VALID,356,VALID,0.575391,
2012-02-16, 03:16:04,VALID,1001.36,VALID,0,VALID,86.4581,VALID,0.0815089,VALID,25.4344,VALID,356,VALID,0.456641,
2012-02-16, 03:17:04,VALID,1001.34,VALID,0,VALID,86.7785,VALID,0.0815089,VALID,25.4344,VALID,356,VALID,0.200781,
2012-02-16, 03:18:04,VALID,1001.36,VALID,0,VALID,86.687,VALID,0,VALID,25.3955,VALID,356,VALID,0.466797,
2012-02-16, 03:19:04,VALID,1001.34,VALID,0,VALID,86.8319,VALID,0.0815089,VALID,25.3955,VALID,355,VALID,0.384375,
2012-02-16, 03:20:04,VALID,1001.3,VALID,0,VALID,86.954,VALID,0.0815089,VALID,25.376,VALID,355,VALID,0.225781,
2012-02-16, 03:21:04,VALID,1001.28,VALID,0,VALID,86.9006,VALID,0.0815089,VALID,25.3565,VALID,355,VALID,0.40625,
2012-02-16, 03:22:04,VALID,1001.24,VALID,0,VALID,86.9921,VALID,0,VALID,25.3565,VALID,355,VALID,0.141406,
2012-02-16, 03:23:04,VALID,1001.22,VALID,0,VALID,86.9235,VALID,0,VALID,25.3584,VALID,355,VALID,0.119922,
2012-02-16, 03:24:04,VALID,1001.22,VALID,0,VALID,86.8014,VALID,0,VALID,25.3565,VALID,353,VALID,0.373437,
2012-02-16, 03:25:04,VALID,1001.21,VALID,0,VALID,86.6946,VALID,0,VALID,25.3584,VALID,351,VALID,0.0375,
2012-02-16, 03:26:04,VALID,1001.18,VALID,0,VALID,86.7327,VALID,0,VALID,25.3565,VALID,351,VALID,0.291406,
2012-02-16, 03:27:04,VALID,1001.19,VALID,0,VALID,86.809,VALID,0,VALID,25.376,VALID,351,VALID,0,
2012-02-16, 03:28:04,VALID,1001.2,VALID,0,VALID,86.8701,VALID,0,VALID,25.3565,VALID,351,VALID,0.084375,
2012-02-16, 03:29:04,VALID,1001.19,VALID,0,VALID,86.9387,VALID,0.0815089,VALID,25.376,VALID,351,VALID,0,
2012-02-16, 03:30:04,VALID,1001.19,VALID,0,VALID,86.8929,VALID,0,VALID,25.3779,VALID,351,VALID,0.0253906,
2012-02-16, 03:31:04,VALID,1001.22,VALID,0,VALID,86.7556,VALID,0.0815089,VALID,25.376,VALID,350,VALID,0.141406,
2012-02-16, 03:32:04,VALID,1001.2,VALID,0,VALID,86.5573,VALID,0,VALID,25.376,VALID,350,VALID,0.201953,
2012-02-16, 03:33:04,VALID,1001.21,VALID,0,VALID,86.6107,VALID,0.0815089,VALID,25.3955,VALID,350,VALID,0.394141,
2012-02-16, 03:34:04,VALID,1001.2,VALID,0,VALID,86.4734,VALID,0,VALID,25.376,VALID,350,VALID,0.367188,
2012-02-16, 03:35:04,VALID,1001.23,VALID,0,VALID,86.336,VALID,0,VALID,25.376,VALID,347,VALID,0.222266,
2012-02-16, 03:36:04,VALID,1001.2,VALID,0,VALID,86.2979,VALID,0,VALID,25.376,VALID,347,VALID,0,
2012-02-16, 03:37:04,VALID,1001.21,VALID,0,VALID,86.3208,VALID,0,VALID,25.3974,VALID,347,VALID,0,
2012-02-16, 03:38:04,VALID,1001.24,VALID,0,VALID,86.4352,VALID,0.0815089,VALID,25.376,VALID,347,VALID,0.100781,
2012-02-16, 03:39:04,VALID,1001.25,VALID,0,VALID,86.3742,VALID,0,VALID,25.3565,VALID,347,VALID,0.282813,
2012-02-16, 03:40:04,VALID,1001.26,VALID,0,VALID,86.2216,VALID,0,VALID,25.3565,VALID,346,VALID,0.244922,
2012-02-16, 03:41:04,VALID,1001.25,VALID,0,VALID,86.1911,VALID,0,VALID,25.3565,VALID,349,VALID,0.504297,
2012-02-16, 03:42:04,VALID,1001.29,VALID,0,VALID,86.0004,VALID,0,VALID,25.376,VALID,344,VALID,0.725781,